Weather History for KORS - June, 2013

Change the Weather History Date:

Sunday, June 30, 2013

  Actual Average (KBLI) Record (KBLI)
Temperature  
Mean Temperature 65 °F 60 °F  
Max Temperature 77 °F 69 °F 87 °F (2013)
Min Temperature 53 °F 52 °F 38 °F (1949)
Degree Days  
Heating Degree Days 0 5  
Month to date heating degree days 195  
Since 1 June heating degree days 201  
Cooling Degree Days 0 0  
Month to date cooling degree days 4  
Year to date cooling degree days 4  
Since 1 June cooling degree days 4  
Growing Degree Days 15 (Base 50)    
Moisture  
Dew Point 59 °F    
Average Humidity 80    
Maximum Humidity 100    
Minimum Humidity 65    
Precipitation  
Precipitation 0.00 in 0.05 in 0.57 in (1979)
Month to date precipitation 1.86  
Year to date precipitation 17.94  
Sea Level Pressure  
Sea Level Pressure 29.94 in    
Wind  
Wind Speed 2 mph (NNW)    
Max Wind Speed 8 mph    
Max Gust Speed -    
Visibility 9 miles    
Events Rain    
T = Trace of Precipitation, MM = Missing Value Source: NWS Daily Summary

Daily Weather History Graph

Daily Weather History Graph

Search for Another Location

Airport or City:

Trip Planner

Search our weather history database for the weather conditions in past years. The results will help you decide how hot, cold, wet, or windy it might be!

Date:

Astronomy

Jun. 30, 2013 Rise Set
Actual Time 5:12 AM PDT 9:17 PM PDT
Civil Twilight 4:30 AM PDT 9:59 PM PDT
Nautical Twilight 3:31 AM PDT 10:59 PM PDT
Astronomical Twilight 1:35 AM PDT 12:51 AM PDT
Moon 12:39 AM PDT (6/30) 2:16 PM PDT (6/30)
Length of Visible Light 17h 29m
Length of Day
16h 05m
Last Quarter, 44% of the Moon is Illuminated
Jun 30
Last Quarter
Jul 8
New
Jul 15
First Quarter
Jul 22
Full
Jul 29
Last Quarter

Hourly Weather History & Observations

Time (PDT) Temp. Dew Point Humidity Pressure Visibility Wind Dir Wind Speed Gust Speed Precip Events Conditions
12:15 AM 59.0 °F 55.4 °F 88% 30.00 in 10.0 mi South 3.5 mph - N/A   Clear
12:35 AM 59.0 °F 55.4 °F 88% 30.00 in 10.0 mi South 4.6 mph - N/A   Clear
12:55 AM 59.0 °F 55.4 °F 88% 30.00 in 10.0 mi South 3.5 mph - N/A   Clear
1:15 AM 59.0 °F 55.4 °F 88% 30.01 in 10.0 mi Calm Calm - N/A   Clear
1:35 AM 57.2 °F 55.4 °F 94% 30.00 in 10.0 mi Calm Calm - N/A   Clear
1:55 AM 55.4 °F 53.6 °F 94% 30.00 in 10.0 mi Calm Calm - N/A   Clear
2:15 AM 55.4 °F 53.6 °F 94% 30.00 in 10.0 mi Calm Calm - N/A   Clear
2:35 AM 53.6 °F 51.8 °F 94% 30.00 in 10.0 mi Calm Calm - N/A   Clear
2:55 AM 53.6 °F 51.8 °F 94% 30.00 in 10.0 mi Calm Calm - N/A   Clear
3:15 AM 53.6 °F 53.6 °F 100% 30.00 in 10.0 mi Calm Calm - N/A   Clear
3:35 AM 55.4 °F 53.6 °F 94% 29.99 in 10.0 mi Calm Calm - N/A   Clear
3:55 AM 55.4 °F 53.6 °F 94% 30.00 in 10.0 mi Calm Calm - N/A   Clear
4:15 AM 55.4 °F 55.4 °F 100% 30.00 in 10.0 mi Calm Calm - N/A Rain Light Rain
4:35 AM 55.4 °F 55.4 °F 100% 29.99 in 10.0 mi Calm Calm - N/A   Clear
4:55 AM 55.4 °F 53.6 °F 94% 30.00 in 9.0 mi Calm Calm - N/A   Clear
5:15 AM 55.4 °F 55.4 °F 100% 30.00 in 8.0 mi Calm Calm - N/A   Clear
5:35 AM 55.4 °F 53.6 °F 94% 30.00 in 8.0 mi Calm Calm - N/A   Clear
5:55 AM 55.4 °F 55.4 °F 100% 30.00 in 8.0 mi Calm Calm - N/A   Clear
6:15 AM 55.4 °F 55.4 °F 100% 30.00 in 8.0 mi Calm Calm - N/A   Clear
6:35 AM 57.2 °F 55.4 °F 94% 30.00 in 8.0 mi Calm Calm - N/A   Clear
6:55 AM 59.0 °F 55.4 °F 88% 30.00 in 8.0 mi Calm Calm - N/A   Clear
7:15 AM 57.2 °F 53.6 °F 88% 30.00 in 7.0 mi Calm Calm - N/A   Clear
7:35 AM 59.0 °F 55.4 °F 88% 30.00 in 8.0 mi Calm Calm - N/A   Clear
7:55 AM 57.2 °F 55.4 °F 94% 30.00 in 8.0 mi Calm Calm - N/A   Clear
8:15 AM 59.0 °F 55.4 °F 88% 30.00 in 9.0 mi Calm Calm - N/A   Clear
8:35 AM 60.8 °F 55.4 °F 82% 30.00 in 8.0 mi Calm Calm - N/A   Clear
8:55 AM 62.6 °F 55.4 °F 77% 30.00 in 9.0 mi North 4.6 mph - N/A   Clear
9:15 AM 62.6 °F 57.2 °F 82% 30.00 in 9.0 mi North 6.9 mph - N/A   Clear
9:35 AM 64.4 °F 57.2 °F 77% 29.99 in 9.0 mi North 5.8 mph - N/A   Clear
9:55 AM 64.4 °F 57.2 °F 77% 29.99 in 8.0 mi North 5.8 mph - N/A   Clear
10:15 AM 66.2 °F 59.0 °F 78% 29.99 in 9.0 mi NNW 6.9 mph - N/A   Clear
10:35 AM 66.2 °F 59.0 °F 78% 29.98 in 9.0 mi North - - N/A   Clear
10:55 AM 66.2 °F 59.0 °F 78% 29.98 in 9.0 mi North 5.8 mph - N/A   Clear
11:15 AM 68.0 °F 60.8 °F 78% 29.98 in 9.0 mi NNW 6.9 mph - N/A   Clear
11:35 AM 68.0 °F 62.6 °F 83% 29.97 in 9.0 mi NNW 6.9 mph - N/A   Clear
11:55 AM 68.0 °F 60.8 °F 78% 29.96 in 9.0 mi NNW 6.9 mph - N/A   Clear
12:15 PM 69.8 °F 62.6 °F 78% 29.96 in 9.0 mi North 8.1 mph - N/A   Clear
12:35 PM 69.8 °F 62.6 °F 78% 29.96 in 10.0 mi North 6.9 mph - N/A   Clear
12:55 PM 69.8 °F 62.6 °F 78% 29.95 in 8.0 mi North 5.8 mph - N/A   Clear
1:15 PM 71.6 °F 62.6 °F 73% 29.95 in 9.0 mi North 5.8 mph - N/A   Clear
1:35 PM 71.6 °F 62.6 °F 73% 29.94 in 9.0 mi NNW 6.9 mph - N/A   Clear
1:55 PM 71.6 °F 62.6 °F 73% 29.94 in 8.0 mi North 8.1 mph - N/A   Clear
2:15 PM 73.4 °F 62.6 °F 69% 29.93 in 9.0 mi North 6.9 mph - N/A   Clear
2:35 PM 71.6 °F 62.6 °F 73% 29.93 in 9.0 mi North 6.9 mph - N/A   Clear
2:55 PM 73.4 °F 64.4 °F 73% 29.92 in 9.0 mi NNW 5.8 mph - N/A   Clear
3:15 PM 73.4 °F 62.6 °F 69% 29.92 in 9.0 mi NNW 5.8 mph - N/A   Clear
3:35 PM 73.4 °F 64.4 °F 73% 29.91 in 10.0 mi North 6.9 mph - N/A   Clear
3:55 PM 73.4 °F 62.6 °F 69% 29.90 in 10.0 mi North 5.8 mph - N/A   Clear
4:15 PM 75.2 °F 64.4 °F 69% 29.90 in 9.0 mi NNW 6.9 mph - N/A   Clear
4:35 PM 75.2 °F 64.4 °F 69% 29.89 in 10.0 mi NNW 6.9 mph - N/A   Clear
4:55 PM 75.2 °F 64.4 °F 69% 29.89 in 10.0 mi NNW 5.8 mph - N/A   Clear
5:15 PM 75.2 °F 64.4 °F 69% 29.89 in 10.0 mi Calm Calm - N/A   Clear
5:35 PM 77.0 °F 64.4 °F 65% 29.88 in 10.0 mi Calm Calm - N/A   Clear
5:55 PM 77.0 °F 64.4 °F 65% 29.87 in 10.0 mi Calm Calm - N/A   Clear
6:15 PM 73.4 °F 64.4 °F 73% 29.87 in 10.0 mi North 4.6 mph - N/A   Clear
6:35 PM 73.4 °F 64.4 °F 73% 29.87 in 9.0 mi Calm Calm - N/A   Clear
6:55 PM 75.2 °F 64.4 °F 69% 29.86 in 10.0 mi Calm Calm - N/A   Clear
7:15 PM 75.2 °F 62.6 °F 65% 29.86 in 10.0 mi Calm Calm - N/A   Clear
7:35 PM 75.2 °F 62.6 °F 65% 29.85 in 10.0 mi Calm Calm - N/A   Clear
7:55 PM 75.2 °F 64.4 °F 69% 29.85 in 10.0 mi Calm Calm - N/A   Clear
8:15 PM 75.2 °F 62.6 °F 65% 29.85 in 10.0 mi Calm Calm - N/A   Clear
8:35 PM 73.4 °F 64.4 °F 73% 29.85 in 10.0 mi Calm Calm - N/A   Clear
8:55 PM 73.4 °F 62.6 °F 69% 29.86 in 10.0 mi South 3.5 mph - N/A   Clear
9:15 PM 71.6 °F 62.6 °F 73% 29.85 in 9.0 mi Calm Calm - N/A   Clear
9:35 PM 71.6 °F 62.6 °F 73% 29.86 in 9.0 mi North - - N/A   Clear
9:55 PM 71.6 °F 62.6 °F 73% 29.86 in 10.0 mi South 4.6 mph - N/A   Clear
10:15 PM 69.8 °F 62.6 °F 78% 29.87 in 10.0 mi Calm Calm - N/A   Partly Cloudy
10:35 PM 69.8 °F 60.8 °F 73% 29.87 in 10.0 mi North - - N/A   Clear
10:55 PM 68.0 °F 60.8 °F 78% 29.87 in 10.0 mi Calm Calm - N/A   Partly Cloudy
11:15 PM 68.0 °F 59.0 °F 73% 29.87 in 10.0 mi SSE 4.6 mph - N/A   Partly Cloudy
11:35 PM 66.2 °F 59.0 °F 78% 29.88 in 10.0 mi North - - N/A   Partly Cloudy
11:55 PM 64.4 °F 59.0 °F 83% 29.88 in 10.0 mi South 3.5 mph - N/A   Clear